Voltar ao catálogo

STARLINK-5669

AtivoComunicaçõesVLEO
NORAD 55459·PAYLOAD·🇺🇸 United States

Lançado Feb 2, 2023 de Cape Canaveral Space Force Station

Loading…

Próximas Passagens (próximas 24 horas)

TLE

AtualizadoSource: CelesTrak SupGP

Época: Sep 15, 2026, 02:56 UTC

1 55459C 23015L   26258.12270833  .00033325  00000+0  12071-2 0  2584
2 55459  43.0027 338.9665 0001635 260.9559  64.4780 15.27560661    16

Acompanhe STARLINK-5669 em tempo real com AllMySat

Download on the App Store